DW9840 Weather Reports


Display with metric or nautical units.
time (UTC)temp
F
wind
direction
speed
MPH
gust
MPH
rain 1hr
in
rain 24hr
in
rain mn
in
humidity
%
barometer
mb
20260508070057 56 191 0.0 0.0 0.00 0.00 0.00 3 1016.9
20260508064553 56 229 0.0 0.0 0.00 0.00 0.00 3 1016.9
20260508063044 56 100 0.0 1.0 0.00 0.00 0.00 3 1016.9
20260508061525 57 211 0.0 4.0 0.00 0.00 0.00 3 1016.9
20260508060004 57 134 0.0 3.0 0.00 0.00 0.00 3 1017.0
20260508054559 57 252 0.0 3.0 0.00 0.00 0.00 3 1016.8
20260508053040 57 204 0.0 2.0 0.00 0.00 0.00 3 1016.9
20260508051535 57 188 0.0 4.0 0.00 0.00 0.00 3 1017.0
20260508050011 58 225 0.0 0.0 0.00 0.00 0.00 3 1016.9
20260508044506 58 197 0.0 7.0 0.00 0.00 0.00 3 1016.7
20260508043045 59 176 0.0 5.0 0.00 0.00 0.00 3 1016.7
20260508041541 59 197 0.0 11.0 0.00 0.00 0.00 3 1016.4
20260508040019 59 173 0.0 3.0 0.00 0.00 0.00 3 1016.3
20260508034515 60 194 0.0 7.0 0.00 0.00 0.00 3 1016.1
20260508033057 61 217 2.0 10.0 0.00 0.00 0.00 3 1016.2
20260508031556 61 231 1.0 9.0 0.00 0.00 0.00 3 1015.9
20260508030049 61 166 2.0 12.0 0.00 0.00 0.00 3 1015.8
20260508024550 62 136 1.0 10.0 0.00 0.00 0.00 17 1015.5
20260508023039 62 203 0.0 9.0 0.00 0.00 0.00 29 1015.6
20260508021535 63 195 2.0 11.0 0.00 0.00 0.00 38 1015.7
20260508020044 64 207 2.0 8.0 0.00 0.00 0.00 49 1015.6
20260508014543 65 225 0.0 4.0 0.00 0.00 0.00 55 1015.6
20260508013036 66 155 0.0 4.0 0.00 0.00 0.00 56 1015.7
20260508011534 66 211 0.0 7.0 0.00 0.00 0.00 57 1015.9
20260508004601 66 198 0.0 7.0 0.00 0.00 0.00 58 1016.0
20260508003053 66 238 1.0 12.0 0.00 0.00 0.00 59 1016.0
20260508001546 66 226 0.0 8.0 0.00 0.00 0.00 59 1016.0
20260507234542 67 224 1.0 10.0 0.00 0.00 0.00 60 1015.9
20260507233043 67 195 0.0 9.0 0.00 0.00 0.00 59 1016.1
20260507231536 68 158 2.0 9.0 0.00 0.00 0.00 59 1016.2
20260507230028 68 216 1.0 10.0 0.00 0.00 0.00 59 1016.3
20260507224530 68 215 0.0 11.0 0.00 0.00 0.00 60 1016.5
20260507223019 69 214 0.0 8.0 0.00 0.00 0.00 59 1016.6
20260507221515 69 210 0.0 4.0 0.00 0.00 0.00 59 1016.7
20260507220009 68 248 0.0 5.0 0.00 0.00 0.00 59 1016.8
20260507214601 69 165 0.0 5.0 0.00 0.00 0.00 59 1017.0
20260507213046 69 207 0.0 5.0 0.00 0.00 0.00 58 1017.3
20260507211525 69 226 0.0 7.0 0.00 0.00 0.00 58 1017.4
20260507210018 69 232 0.0 2.0 0.00 0.00 0.00 58 1017.4
20260507204558 69 293 0.0 4.0 0.00 0.00 0.00 58 1017.5
20260507203105 69 193 0.0 3.0 0.00 0.00 0.00 58 1017.7
20260507201530 69 143 0.0 2.0 0.00 0.00 0.00 57 1017.7
20260507200027 69 208 0.0 4.0 0.00 0.00 0.00 57 1017.8
20260507194505 69 127 0.0 0.0 0.00 0.00 0.00 56 1017.9
20260507193100 68 208 0.0 0.0 0.00 0.00 0.00 54 1018.1
20260507191539 67 277 0.0 0.0 0.00 0.00 0.00 53 1018.2
20260507190034 66 274 0.0 0.0 0.00 0.00 0.00 48 1018.5
20260507184512 65 212 0.0 1.0 0.00 0.00 0.00 42 1018.5
20260507183012 65 256 0.0 0.0 0.00 0.00 0.00 27 1018.8
20260507181547 65 181 0.0 0.0 0.00 0.00 0.00 9 1018.8
20260507180047 65 182 0.0 0.0 0.00 0.00 0.00 3 1018.8
20260507174521 63 233 0.0 2.0 0.00 0.00 0.00 3 1018.7
20260507173029 61 179 0.0 0.0 0.00 0.00 0.00 3 1018.8
20260507171554 59 235 0.0 0.0 0.00 0.00 0.00 3 1018.9
20260507170059 59 155 0.0 0.0 0.00 0.00 0.00 3 1018.9
20260507164528 58 259 0.0 0.0 0.00 0.00 0.00 3 1018.9
20260507163023 57 219 0.0 0.0 0.00 0.00 0.00 3 1018.9
20260507161502 56 219 0.0 0.0 0.00 0.00 0.00 3 1018.7
20260507160059 55 127 0.0 0.0 0.00 0.00 0.00 3 1018.7
20260507154540 55 229 0.0 0.0 0.00 0.00 0.00 3 1018.7
20260507153033 55 162 0.0 0.0 0.00 0.00 0.00 3 1018.7
20260507151509 54 180 0.0 1.0 0.00 0.00 0.00 3 1018.7
20260507150012 54 236 0.0 0.0 0.00 0.00 0.00 3 1018.7
20260507144544 54 129 0.0 0.0 0.00 0.00 0.00 3 1018.7
20260507143040 54 131 0.0 0.0 0.00 0.00 0.00 3 1018.6
20260507141517 0 0.0 0.0 0.00 0.00 0.00 1018.4
20260507140013 0 0.0 0.0 0.00 0.00 0.00 1018.3
20260507134552 0 0.0 0.0 0.00 0.00 0.00 1018.2
20260507133101 0 0.0 0.0 0.00 0.00 0.00 1018.0
20260507131531 0 0.0 0.0 0.00 0.00 0.00 1017.9
20260507130021 0 0.0 0.0 0.00 0.00 0.00 1017.8
20260507124559 0 0.0 0.0 0.00 0.00 0.00 1017.8
20260507123056 0 0.0 0.0 0.00 0.00 0.00 1017.7
20260507121534 0 0.0 0.0 0.00 0.00 0.00 1017.7
20260507120029 55 177 0.0 0.0 0.00 0.00 0.00 3 1017.8
20260507114509 55 225 0.0 0.0 0.00 0.00 0.00 3 1017.9
20260507113010 55 177 0.0 0.0 0.00 0.00 0.00 3 1017.9
20260507111542 55 173 0.0 0.0 0.00 0.00 0.00 3 1018.0
20260507110037 55 224 0.0 0.0 0.00 0.00 0.00 3 1017.9
20260507104515 55 189 0.0 0.0 0.00 0.00 0.00 3 1018.0
20260507103013 56 219 0.0 0.0 0.00 0.00 0.00 3 1018.1
20260507101549 56 203 0.0 0.0 0.00 0.00 0.00 3 1018.1
20260507100044 56 113 0.0 0.0 0.00 0.00 0.00 3 1018.2
20260507094522 56 167 0.0 0.0 0.00 0.00 0.00 3 1018.2
20260507093019 56 169 0.0 0.0 0.00 0.00 0.00 3 1018.3
20260507091501 56 129 0.0 0.0 0.00 0.00 0.00 3 1018.4
20260507090100 56 134 0.0 0.0 0.00 0.00 0.00 3 1018.4
20260507084559 56 93 0.0 0.0 0.00 0.00 0.00 3 1018.5
20260507083050 56 203 0.0 0.0 0.00 0.00 0.00 3 1018.3
20260507081546 56 194 0.0 1.0 0.00 0.00 0.00 3 1018.3
20260507080043 56 198 0.0 1.0 0.00 0.00 0.00 3 1018.3
20260507074535 56 129 0.0 1.0 0.00 0.00 0.00 3 1018.3
20260507073031 56 225 0.0 0.0 0.00 0.00 0.00 3 1018.3
20260507071508 56 190 0.0 0.0 0.00 0.00 0.00 3 1018.2